Temp
6 6 6 7 7 6 5 5 5 7 7 6 7 6 7 8 9 10 10 11 10 10 10 9 10 10 10 10 10 10 10 10 11 10 10 10 9 8 8 8 7 7 6 6
5 5 6 5 5 5 5 5 5 5 6 5 5 5 7 8 9 9 10 11 9 9 9 9 9 9 9 9 9 10 10 10 10 11 10 10 9 9 8 7 7 7 7 6
5 4 4 5 4 4 5 4 5 4 5 4 4 5 6 7 9 9 9 9 8 8 9 9 9 10 10 10 10 9 9 10 11 10 10 10 10 9 9 9 9 8 7 6
4 5 5 5 5 5 3 5 4 4 3 2 3 1 4 7 7 8 7 7 7 7 7 8 8 9 9 10 10 10 9 9 9 10 10 10 10 10 9 9 7 6 6 6
4 4 5 4 5 4 4 4 5 4 4 2 1 1 5 6 8 6 7 7 7 7 8 8 8 7 7 7 8 9 9 9 8 9 9 9 9 9 9 9 8 7 5 5
5 4 4 5 4 3 3 3 2 2 2 -1 4 3 4 7 8 7 7 7 7 7 6 6 5 6 6 7 8 8 9 8 8 8 8 8 8 8 8 8 8 7 6 5
4 4 4 4 3 3 3 2 1 -1 -3 -0 4 3 4 7 7 5 5 5 5 4 5 5 5 5 6 6 7 7 8 8 8 8 7 7 6 6 7 7 6 6 6 5
2 2 2 3 3 3 3 2 2 -3 -2 2 3 3 4 4 4 4 4 4 3 4 4 3 4 5 5 4 5 7 6 7 7 7 6 6 6 5 5 5 5 5 5 4
1 1 1 1 2 2 2 1 2 2 2 -1 2 2 4 4 3 3 3 3 4 4 3 3 3 3 4 5 4 4 3 3 5 5 5 5 4 5 5 4 4 3 3 3
-1 -1 -0 -0 1 0 1 1 0 -0 -3 -2 1 1 3 3 2 2 2 1 1 1 1 2 2 2 2 3 3 3 3 3 3 3 3 3 3 3 4 3 3 3 3 3
-1 -2 -1 -2 -1 -0 -0 -0 -1 0 -0 -3 -1 0 2 1 1 1 -0 -1 -1 -1 -1 -0 -1 -0 -0 1 2 1 2 2 2 3 2 3 3 2 2 3 3 3 2 2
-3 -2 -3 -2 -1 -2 -2 -1 -0 -2 -3 -3 -2 -2 1 -1 -2 -1 -1 -1 -2 -2 -2 -2 -2 -2 -1 -1 -0 -0 0 0 1 1 1 1 2 1 2 2 3 3 3 3
-3 -3 -3 -3 -1 -1 -3 -3 -3 -3 -3 -4 -4 -2 -2 -2 -2 -1 -1 -2 -2 -2 -2 -2 -2 -2 -2 -2 -2 -2 -1 -1 -1 -1 -1 -1 -0 0 0 1 1 1 2 2
-5 -4 -4 -4 -3 -3 -4 -4 -4 -4 -4 -4 -4 -4 -3 -4 -3 -3 -3 -2 -2 -3 -4 -4 -5 -4 -4 -4 -4 -4 -3 -2 -2 -2 -2 -2 -1 -1 -1 -1 -1 -0 0 1
-6 -6 -6 -5 -5 -5 -5 -5 -5 -5 -6 -7 -6 -7 -5 -5 -4 -3 -3 -4 -4 -4 -4 -5 -7 -7 -7 -7 -6 -6 -5 -5 -3 -3 -3 -3 -2 -2 -1 -2 -1 -1 -0 0
-7 -6 -6 -6 -6 -7 -8 -7 -6 -5 -6 -7 -7 -7 -6 -6 -6 -6 -6 -6 -6 -5 -5 -6 -7 -7 -7 -6 -6 -7 -7 -6 -5 -4 -4 -4 -4 -3 -4 -3 -2 -2 -2 -1
-8 -8 -8 -8 -7 -8 -9 -6 -7 -7 -6 -7 -8 -8 -8 -8 -8 -8 -8 -8 -8 -8 -8 -8 -8 -8 -9 -9 -9 -9 -9 -8 -8 -8 -6 -5 -5 -4 -4 -4 -4 -3 -3 -3
-9 -9 -10 -9 -9 -10 -8 -7 -8 -8 -8 -8 -9 -9 -10 -10 -10 -10 -10 -10 -10 -11 -11 -10 -10 -10 -10 -10 -11 -10 -11 -10 -9 -9 -8 -8 -7 -7 -7 -7 -7 -7 -6 -4
-8 -9 -10 -10 -10 -9 -9 -9 -8 -8 -9 -9 -10 -11 -12 -12 -12 -10 -12 -12 -12 -12 -12 -12 -12 -12 -11 -12 -13 -13 -13 -12 -13 -12 -11 -10 -10 -8 -8 -8 -8 -8 -8 -7
-9 -9 -12 -11 -12 -17 -9 -9 -10 -10 -11 -11 -13 -13 -13 -14 -13 -12 -13 -13 -13 -13 -13 -13 -13 -13 -13 -13 -13 -13 -14 -14 -14 -14 -13 -13 -12 -11 -9 -9 -8 -8 -7 -7
-11 -11 -12 -12 -12 -11 -11 -11 -11 -12 -12 -12 -13 -13 -14 -14 -14 -14 -14 -14 -14 -14 -14 -14 -14 -14 -14 -14 -14 -14 -14 -14 -15 -15 -15 -15 -15 -14 -13 -11 -10 -10 -9 -7
-13 -12 -12 -13 -13 -14 -11 -12 -13 -13 -13 -13 -13 -14 -14 -14 -14 -14 -14 -14 -15 -15 -15 -15 -15 -14 -14 -15 -15 -15 -15 -15 -15 -15 -15 -15 -16 -15 -15 -14 -13 -12 -11 -10
-14 -14 -13 -13 -13 -12 -13 -13 -13 -14 -14 -14 -14 -14 -15 -15 -15 -15 -15 -15 -15 -16 -16 -16 -16 -16 -15 -16 -16 -16 -16 -16 -16 -16 -16 -16 -16 -16 -16 -15 -15 -14 -13 -12
-14 -14 -15 -15 -14 -14 -14 -14 -14 -14 -14 -15 -15 -15 -15 -16 -15 -16 -16 -16 -16 -16 -16 -17 -17 -16 -16 -16 -17 -17 -17 -17 -17 -17 -17 -16 -16 -16 -16 -16 -15 -15 -14 -13
-14 -15 -15 -15 -15 -14 -14 -14 -14 -15 -15 -15 -15 -15 -16 -16 -16 -16 -16 -16 -16 -16 -17 -17 -17 -17 -17 -17 -17 -17 -17 -17 -17 -17 -17 -17 -17 -17 -17 -16 -16 -16 -15 -15
-13 -14 -15 -15 -14 -15 -14 -15 -15 -15 -15 -15 -16 -16 -16 -16 -16 -17 -17 -17 -17 -17 -17 -17 -17 -17 -17 -17 -17 -18 -18 -18 -17 -17 -17 -17 -17 -17 -17 -16 -16 -16 -15 -15
Height
3132 3128 3129 3133 3133 3130 3126 3122 3118 3119 3121 3113 3106 3097 3100 3103 3103 3101 3101 3099 3097 3097 3099 3096 3094 3094 3094 3093 3092 3091 3090 3091 3091 3092 3092 3093 3095 3099 3100 3101 3103 3104 3104 3106
3124 3118 3126 3125 3124 3123 3121 3115 3112 3109 3113 3105 3097 3086 3090 3096 3094 3094 3093 3092 3091 3089 3090 3090 3089 3089 3089 3089 3086 3084 3082 3080 3081 3081 3083 3082 3085 3087 3090 3091 3091 3092 3094 3096
3115 3116 3120 3118 3116 3117 3112 3112 3107 3105 3103 3097 3087 3075 3080 3085 3085 3085 3087 3086 3086 3085 3087 3086 3085 3084 3081 3080 3079 3077 3074 3073 3071 3071 3072 3073 3074 3074 3077 3079 3080 3081 3084 3086
3107 3108 3108 3109 3108 3110 3105 3109 3104 3101 3098 3093 3091 3070 3069 3074 3077 3078 3077 3081 3082 3082 3080 3079 3076 3075 3075 3072 3068 3067 3067 3066 3066 3065 3063 3065 3066 3065 3068 3069 3072 3074 3076 3078
3105 3105 3104 3102 3104 3104 3100 3102 3100 3095 3093 3086 3085 3084 3064 3070 3070 3072 3072 3077 3079 3079 3075 3072 3071 3069 3064 3060 3058 3057 3057 3059 3059 3058 3059 3058 3056 3057 3059 3057 3059 3061 3064 3067
3099 3100 3099 3098 3099 3099 3095 3094 3093 3091 3090 3084 3075 3078 3062 3065 3067 3069 3073 3078 3075 3076 3071 3068 3065 3063 3060 3056 3053 3049 3047 3048 3049 3050 3050 3051 3050 3049 3049 3049 3050 3051 3052 3055
3096 3094 3093 3095 3094 3094 3094 3090 3088 3087 3086 3076 3074 3069 3054 3063 3070 3067 3071 3071 3068 3066 3060 3059 3058 3055 3053 3051 3048 3044 3040 3039 3039 3038 3038 3039 3039 3039 3040 3040 3039 3040 3042 3045
3088 3084 3088 3089 3089 3088 3087 3088 3089 3088 3080 3067 3071 3057 3048 3057 3062 3066 3062 3060 3059 3055 3053 3050 3052 3050 3046 3046 3044 3039 3038 3033 3028 3029 3029 3029 3030 3027 3025 3026 3030 3032 3033 3035
3081 3071 3079 3079 3080 3081 3077 3076 3078 3072 3069 3066 3056 3048 3043 3047 3057 3055 3053 3051 3049 3047 3047 3041 3040 3041 3040 3036 3037 3038 3035 3029 3024 3023 3022 3021 3020 3021 3020 3020 3019 3020 3022 3025
3075 3070 3066 3073 3072 3068 3070 3069 3067 3066 3065 3060 3049 3047 3034 3041 3045 3042 3042 3042 3041 3040 3039 3038 3033 3032 3029 3027 3027 3028 3028 3026 3022 3019 3019 3018 3016 3014 3013 3011 3012 3013 3014 3013
3069 3067 3060 3061 3055 3060 3061 3057 3056 3056 3053 3046 3042 3039 3037 3035 3033 3032 3029 3031 3031 3031 3029 3029 3028 3025 3024 3018 3015 3017 3016 3016 3015 3012 3011 3012 3011 3009 3008 3007 3005 3004 3004 3005
3060 3052 3049 3047 3049 3046 3048 3049 3046 3044 3041 3033 3031 3025 3035 3026 3024 3023 3021 3020 3022 3020 3019 3018 3016 3015 3015 3012 3009 3006 3008 3006 3005 3003 3001 3002 3001 3000 2999 2997 2996 2996 2995 2994
3053 3043 3042 3040 3042 3035 3033 3036 3036 3034 3029 3021 3024 3019 3023 3022 3015 3014 3013 3009 3008 3008 3009 3009 3007 3004 3002 3001 2998 2998 2996 2994 2992 2991 2989 2989 2989 2988 2987 2986 2986 2986 2985 2983
3045 3039 3035 3032 3033 3030 3030 3029 3028 3027 3020 3014 3012 3012 3016 3015 3011 3007 3005 3002 2997 2992 2989 2985 2988 2990 2987 2986 2984 2984 2983 2979 2977 2976 2974 2974 2973 2974 2973 2973 2972 2972 2971 2972
3034 3028 3027 3023 3024 3023 3020 3019 3020 3014 3013 3009 3006 3005 3005 3002 3000 2999 2996 2995 2989 2983 2981 2977 2975 2977 2976 2973 2972 2974 2972 2969 2965 2965 2962 2960 2959 2957 2956 2957 2958 2956 2956 2957
3023 3017 3016 3011 3014 3014 3010 3008 3004 3003 3000 2997 2996 2990 2988 2988 2988 2988 2986 2984 2980 2977 2974 2969 2964 2963 2962 2960 2957 2961 2959 2958 2956 2953 2951 2945 2946 2945 2944 2942 2940 2941 2942 2942
3015 3012 3011 3001 3006 3002 2997 2994 2995 2993 2991 2987 2983 2983 2981 2979 2978 2976 2975 2974 2971 2967 2965 2962 2958 2954 2951 2949 2947 2946 2942 2941 2941 2941 2939 2936 2932 2928 2927 2926 2924 2921 2921 2923
3004 3004 3003 2994 2997 2988 2982 2984 2984 2981 2979 2976 2975 2974 2972 2970 2968 2968 2966 2964 2962 2959 2956 2954 2951 2947 2943 2940 2936 2932 2929 2927 2926 2924 2921 2921 2918 2915 2911 2909 2907 2906 2904 2903
2995 2995 2990 2988 2983 2976 2976 2978 2977 2973 2971 2970 2968 2967 2965 2963 2960 2961 2959 2955 2954 2951 2947 2942 2939 2935 2931 2928 2922 2917 2915 2911 2908 2907 2906 2904 2900 2898 2895 2893 2892 2892 2890 2886
2985 2982 2984 2980 2975 2973 2966 2967 2966 2965 2962 2962 2961 2960 2957 2955 2951 2951 2950 2947 2944 2940 2937 2933 2929 2925 2921 2917 2911 2906 2902 2897 2894 2890 2887 2884 2882 2880 2878 2875 2873 2872 2872 2871
2977 2975 2972 2970 2967 2962 2963 2962 2959 2960 2962 2956 2955 2953 2949 2945 2944 2940 2939 2936 2933 2929 2926 2922 2918 2913 2910 2904 2897 2891 2887 2883 2877 2874 2872 2869 2867 2864 2860 2857 2856 2853 2852 2849
2972 2970 2966 2965 2962 2960 2958 2955 2957 2955 2952 2950 2947 2944 2940 2937 2933 2931 2928 2925 2922 2917 2914 2911 2905 2901 2898 2892 2885 2879 2873 2868 2862 2859 2855 2853 2851 2848 2845 2841 2838 2836 2835 2832
2965 2964 2963 2961 2955 2953 2951 2950 2950 2947 2943 2939 2936 2933 2930 2926 2923 2920 2916 2913 2909 2905 2900 2896 2891 2885 2882 2878 2870 2862 2859 2851 2844 2838 2836 2834 2830 2827 2825 2821 2820 2817 2815 2812
2951 2952 2948 2947 2942 2943 2942 2940 2938 2936 2932 2929 2927 2923 2920 2916 2913 2908 2904 2901 2896 2891 2886 2880 2874 2868 2864 2862 2853 2845 2838 2831 2824 2818 2814 2810 2807 2806 2806 2803 2800 2797 2796 2794
2941 2941 2935 2930 2930 2933 2930 2929 2927 2925 2922 2919 2917 2913 2910 2905 2901 2896 2893 2888 2883 2877 2872 2865 2857 2850 2845 2839 2833 2825 2817 2807 2799 2795 2791 2785 2781 2780 2780 2780 2779 2778 2777 2776
2930 2929 2928 2919 2922 2923 2918 2919 2917 2914 2911 2909 2906 2903 2899 2895 2889 2885 2881 2876 2870 2864 2857 2849 2841 2831 2823 2814 2806 2798 2790 2780 2771 2765 2762 2757 2753 2751 2751 2752 2753 2759 2757 2756
Wind_Speed
32 34 33 32 31 32 35 39 42 42 39 44 49 53 48 44 41 37 35 33 27 20 18 14 17 23 26 28 30 34 40 40 43 43 43 44 43 42 42 41 39 41 44 45
37 40 34 34 31 31 34 37 42 47 40 41 46 51 46 38 35 34 31 20 15 9 7 6 7 6 10 15 22 29 36 38 38 42 43 43 43 43 41 42 42 43 44 43
41 37 33 36 36 36 41 40 41 41 36 39 44 41 19 32 31 13 17 17 3 2 2 7 14 17 20 25 28 28 29 33 36 36 40 41 39 39 39 40 42 44 44 44
36 37 32 28 28 23 33 24 30 31 30 17 24 16 32 17 16 14 10 8 9 14 16 23 29 25 42 36 32 33 33 29 28 28 27 28 30 30 29 33 37 42 43 43
24 22 24 27 29 21 27 19 24 30 32 33 19 17 19 23 2 13 14 4 18 23 27 30 30 45 29 27 26 25 25 34 31 27 27 29 29 29 30 33 35 39 42 43
25 28 31 28 19 16 21 25 27 27 28 12 20 17 5 4 11 10 9 10 29 33 32 29 26 27 30 26 29 34 29 29 28 27 24 25 30 32 33 34 35 38 42 43
34 29 28 26 31 27 22 20 7 5 2 8 7 16 24 8 17 26 21 29 30 20 17 26 24 29 28 28 33 30 26 25 26 28 28 28 29 30 31 33 34 36 39 42
30 38 28 30 29 20 22 25 16 6 6 14 26 21 32 27 26 29 20 7 9 18 22 26 25 21 19 22 25 32 25 25 27 27 30 28 27 26 25 27 31 33 36 39
26 40 34 30 28 23 25 32 39 36 33 13 28 39 55 41 10 3 16 21 20 24 34 37 34 34 36 34 29 24 17 15 19 23 24 23 23 24 23 23 25 28 31 34
16 25 29 25 36 39 34 32 15 13 3 9 13 19 36 28 26 30 27 34 34 34 36 42 46 45 46 49 46 40 34 30 26 23 20 17 16 18 19 19 18 19 23 28
36 33 41 21 25 28 28 32 33 30 22 5 7 15 41 27 36 41 38 38 35 37 39 37 33 35 36 37 42 40 41 39 38 37 37 34 32 30 28 26 25 23 24 24
31 26 28 42 41 36 28 33 31 19 11 18 18 18 43 30 25 34 42 37 41 43 42 40 37 30 29 31 36 40 44 47 48 48 50 52 47 42 41 36 35 36 37 36
23 16 17 17 31 28 26 36 38 36 32 27 18 14 20 23 37 35 45 48 56 56 51 48 47 48 51 50 51 48 55 51 51 56 55 53 50 48 46 42 41 41 42 44
39 39 31 29 28 22 27 30 34 28 21 28 27 30 31 33 46 53 53 57 53 52 53 52 50 46 44 45 46 48 51 59 59 57 56 58 58 53 44 45 42 42 40 45
32 33 35 37 40 40 39 40 41 39 41 30 37 42 51 50 49 49 49 48 49 49 49 45 42 39 36 31 29 33 41 46 48 56 61 59 58 55 54 48 47 45 44 45
28 29 28 31 34 34 43 52 55 56 56 47 44 38 41 35 37 37 42 45 43 41 39 40 43 46 48 50 50 45 40 45 51 55 57 56 50 53 55 55 54 50 50 49
37 41 37 40 41 34 27 47 42 43 48 47 43 38 34 36 35 36 37 34 33 34 40 46 48 49 51 53 54 53 51 46 44 45 47 52 56 59 60 62 62 60 55 53
34 36 33 29 29 20 44 40 31 32 32 31 24 19 19 20 23 26 31 34 37 39 44 47 51 56 57 55 54 57 54 53 52 53 52 49 52 52 55 56 53 53 54 56
49 49 33 27 34 33 42 39 40 40 36 26 19 18 19 23 31 35 34 37 39 43 45 47 49 51 54 53 53 52 49 47 44 47 51 52 53 54 52 48 50 52 54 56
17 21 29 23 9 6 15 18 18 17 26 21 11 22 30 34 38 39 39 41 42 43 45 46 47 47 49 51 52 52 52 51 49 48 46 46 45 47 51 54 51 50 50 51
22 22 28 31 21 18 26 26 24 14 15 11 30 36 39 39 37 39 39 41 43 44 46 47 48 50 51 53 56 57 58 57 56 54 51 48 48 49 48 49 50 50 52 50
17 13 15 11 13 14 22 20 10 20 34 41 39 35 38 36 37 39 41 44 45 46 47 48 51 53 53 54 57 59 62 62 62 61 61 60 57 52 51 52 53 51 50 51
23 26 25 26 20 23 29 37 42 36 32 35 31 33 36 37 40 44 45 44 46 48 50 51 54 56 57 56 56 60 61 63 66 69 69 66 65 62 60 57 55 55 55 52
35 34 40 41 45 41 36 33 28 27 27 29 32 36 38 42 44 44 45 47 49 50 53 54 54 55 57 57 59 63 66 69 72 74 76 76 75 71 67 63 58 56 55 56
42 41 43 46 43 38 35 29 32 34 32 33 35 38 40 41 42 44 47 48 50 52 53 55 58 62 66 68 70 72 75 78 80 81 81 82 83 80 75 68 62 58 57 56
44 44 42 47 39 35 40 36 35 40 38 37 38 37 38 42 44 44 47 49 50 53 56 60 65 71 76 78 79 80 81 84 85 86 85 85 84 81 75 70 66 60 58 56
Wind_Direction
271 264 262 278 285 287 284 284 286 287 295 293 289 292 293 295 297 297 300 301 300 296 299 286 273 277 276 268 262 261 264 263 260 256 258 257 260 260 262 262 263 262 258 253
267 265 278 282 280 280 279 279 284 291 301 298 298 293 294 301 300 304 305 310 311 308 233 252 270 273 303 296 277 268 265 263 260 258 258 259 260 260 260 257 255 255 254 253
271 274 277 277 274 277 277 280 290 296 301 296 300 301 302 304 311 316 311 296 277 57 16 302 299 280 285 292 285 273 270 271 264 258 258 261 263 263 259 257 256 254 254 254
275 278 281 275 275 278 276 294 298 296 299 296 298 295 297 323 314 319 290 131 30 353 331 310 308 294 307 298 284 273 267 263 269 268 258 256 262 264 262 262 260 256 256 255
262 277 279 278 285 282 282 291 290 292 293 295 296 280 297 308 52 124 129 37 339 329 319 309 298 300 292 296 293 297 293 275 276 267 259 255 255 260 261 260 255 250 248 249
285 283 277 283 285 275 284 283 284 286 280 275 282 246 298 323 158 110 352 322 310 296 288 293 291 291 294 299 304 307 293 281 274 258 253 260 263 261 260 263 262 252 249 247
293 281 281 282 283 279 279 274 307 296 200 239 270 278 255 175 259 301 311 304 294 293 263 278 286 297 301 310 309 296 286 265 256 241 251 261 263 262 263 261 255 250 248 247
280 285 279 286 271 273 279 277 247 223 263 276 289 268 276 281 280 301 302 336 335 256 272 296 295 291 296 312 304 293 278 259 240 245 251 253 255 255 253 252 256 252 247 247
275 273 278 266 269 259 272 274 280 251 256 279 264 269 280 289 257 290 281 276 275 275 284 294 303 296 283 287 294 294 303 283 257 253 253 252 253 250 247 248 245 244 246 247
262 274 271 280 275 269 264 266 243 235 230 240 253 260 260 274 293 297 288 297 300 299 292 288 290 293 292 290 288 286 284 282 283 283 286 274 258 249 241 241 245 252 257 255
275 279 282 265 263 266 265 248 246 250 239 231 251 246 262 285 294 295 301 305 306 304 300 296 292 293 294 292 286 291 288 283 289 285 289 285 283 278 278 267 263 267 264 264
276 259 257 268 284 277 257 258 242 230 233 227 246 251 274 286 284 285 295 295 301 302 297 293 288 288 289 287 283 291 287 287 286 291 293 295 289 290 284 278 266 261 258 265
266 265 287 282 280 276 254 247 248 258 265 256 263 267 244 261 283 290 294 299 302 298 293 290 285 287 290 288 282 283 284 283 285 289 289 289 288 289 283 277 268 265 262 257
276 270 257 257 261 266 282 269 271 258 265 269 259 279 276 287 286 294 294 296 296 299 302 303 299 292 289 289 285 278 276 281 287 288 287 286 287 286 279 275 271 267 261 260
276 272 276 275 274 273 275 273 270 270 270 272 276 281 284 289 288 285 287 287 291 294 296 300 303 301 300 295 292 289 284 280 286 286 282 281 280 283 280 275 274 273 269 266
281 270 275 271 270 271 286 284 281 283 285 283 286 284 283 278 278 276 279 284 283 283 287 295 300 303 304 303 303 302 294 279 282 282 282 282 280 284 280 279 278 277 275 264
268 268 278 275 280 285 281 279 286 284 286 282 274 280 271 269 268 271 274 275 280 286 289 293 296 298 299 302 303 302 301 298 296 292 284 277 281 285 283 280 281 281 283 277
265 270 273 274 282 267 280 283 276 272 272 274 277 274 270 279 276 278 290 293 293 300 301 300 299 298 300 304 304 303 305 301 297 295 294 290 284 287 285 284 282 279 278 277
264 266 262 260 260 266 269 269 269 272 277 283 281 272 277 291 287 279 305 305 306 304 304 305 306 304 303 305 306 307 307 304 301 297 293 292 289 286 287 285 284 282 279 275
272 264 246 253 242 227 276 278 278 273 287 281 287 304 307 311 307 295 304 305 304 303 303 303 302 301 300 301 301 303 304 304 304 301 295 290 285 280 279 282 282 281 280 277
269 265 245 244 247 261 269 276 278 269 292 266 304 305 308 307 303 305 305 305 303 302 304 303 301 301 301 300 300 300 300 301 301 300 298 296 294 290 284 276 273 274 274 277
270 264 257 257 252 263 268 256 271 295 292 292 297 297 298 300 298 298 299 300 302 301 301 300 299 298 298 299 296 294 295 296 296 296 296 296 296 293 288 285 279 272 269 269
262 261 270 262 253 265 276 281 290 294 292 295 293 294 297 299 300 300 302 301 300 301 301 301 300 299 298 298 290 288 290 289 290 291 292 293 293 294 294 289 284 280 273 267
276 279 269 272 275 279 287 297 299 297 297 295 295 295 297 301 303 301 300 300 300 299 301 302 300 299 297 296 293 290 289 288 288 288 290 291 290 290 290 288 284 281 278 271
285 288 283 281 282 293 298 291 304 307 296 293 296 299 301 301 300 301 300 300 300 301 302 302 302 302 301 299 296 293 291 290 289 288 288 287 287 287 286 284 280 279 276 273
287 290 279 281 294 291 297 301 295 296 298 299 300 298 301 302 300 300 301 303 303 303 304 304 304 303 301 298 295 293 291 289 288 287 286 285 284 282 281 279 276 275 274 268